Tracking 34142 objects as of 18-May-2026
HD Live streaming from Space Station
objects crossing your sky now

AETHER-5

Track AETHER-5 now!
10-day predictions


NORAD ID: 67376
Int'l Code: 2026-004P
Perigee: 614.8 km
Apogee: 618.3 km
Inclination: 97.8 °
Period: 96.9 minutes
Semi major axis: 6987 km
RCS: Unknown
Launch date: January 11, 2026
Source: Canada (CA)
Launch site: AIR FORCE WESTERN TEST RANGE (AFWTR)
Your satellite tracking list
Your tracking list is empty




NASA's NSSDC Master Catalog

Two Line Element Set (TLE):
1 67376U 26004P   26137.71769657  .00000363  00000-0  47229-4 0  9998
2 67376  97.8040 136.8266 0002465 211.6277 148.4791 14.86333304 18765
Source of the keplerian elements: AFSPC